SL-8 DEB, 21176

Orbit data source: Space-Track

SL-8 DEB, 21176 is space debris in LEO originally from a launch on Tue, 12 Feb 1991 UTC launched from the Plesetsk Missile And Space Complex (PKMTR). Debris objects in space refer to the collection of defunct objects orbiting the Earth. Examples of debris include non-operational satellites, rocket bodies, and fragments generated from explosions, collisions, or faulty payload assembly.

Loading next visibility...
Identifier
21176, 1991-009AP
Orbit
LEO
Country
Flag of CISCIS
Related business
Manufacturer
Unknown
Mission
Spacecraft
Bus & Motor
Unknown
Mass
Unknown
Launch date (UTC)
1991-02-12 (35 years ago)
Launch vehicle
Unknown
Launch site
Plesetsk Missile And Space Complex (PKMTR)
Object type
Payload
Rocket body
Debris
Shape & HBR
Unknown shape, 0.2 m
Radar Cross Section
Medium (>0.1 m² and <1 m²)

Expand to show TLE details & history
Last TLE update: 2 days ago

TLE from 2 days ago
0 SL-8 DEB
1 21176U 91009AP  26171.48666875  .00000005  00000-0  18480-3 0  9992
2 21176  74.0627 258.7290 0206813 303.6351  74.2503 12.18042947569255
Epoch: 2026-06-20T11:40Z
TLE epoch observation values (Epoch: 2026-06-20T11:40:48.179Z)
Latitude
19.37999°
Longitude
-179.43539°
Altitude
1,561.378 km
Speed
7.107 km/s
True Right ascension
17h 37m 51s
True Declination
19° 17' 00"
Sunlit
Object was in full shadow at epoch
Visualization orbit readout
Latitude
Unknown
Longitude
Unknown
Altitude
Unknown
Speed
Unknown
Apparent Right ascension
Unknown
Apparent Declination
Unknown
Sunlit
N/A
Visualization observer readout
Local Sidereal Time
08:23:24
Azimuth
Unknown
Elevation
Unknown
Doppler factor
Unknown
Orbital elements
Apogee altitude
1,763.922 km
Perigee altitude
1,433.969 km
Semi-major axis
7,977.082 km
Eccentricity
0.02068
Inclination
74.0627°
RAAN
258.729°
Arg. of periapsis
303.6351°
True anomaly
76.54673°
Mean anomaly
74.2503°
Eccentric anomaly
75.39697°
Mean motion
3.04633 °/min
Orbital period
118.17 mins
BSTAR
0.0001848
Loading maneuver chart data...
Computing Atmospheric mass density...
Loading historical data...
Loading historical data...
Loading historical data...
Loading historical data...
Loading historical data...
Loading historical data...
Loading historical data...

Documentation

Showing up to 5 results
|